{"data":{"norad_id":59941,"intl_designator":"2024-106V","name":"STARLINK-31948","alt_names":[],"object_type":"PAYLOAD","status":"ACTIVE","operator":null,"country":"US","launch_date":"2024-06-01","launch_site_code":"AFETR","launch_vehicle":null,"mission":null,"orbit_class":"UNKNOWN","rcs_meters":null,"size_class":null,"mass_kg":null,"dimensions":null,"purposes":["comms"],"wikipedia_slug":null,"has_3d_model":false,"image_url":null,"decayed_at":null,"tle_current":{"epoch":"2026-05-25T00:35:27.940416Z","epoch_age_seconds":73022,"freshness":"FRESH","line1":"1 59941U 24106V   26145.02462894 -.00001527  00000+0 -45960-4 0  9998","line2":"2 59941  43.0041 258.1737 0002727 272.9360  87.1179 15.27584059112230","mean_motion":15.27584059,"eccentricity":0.0002727,"inclination_deg":43.0041,"raan_deg":258.1737,"arg_perigee_deg":272.936,"mean_anomaly_deg":87.1179,"bstar":-4.596e-5,"rev_number":11223,"period_min":94.266498233993,"perigee_km":481.16589982638,"apogee_km":484.90798409432,"semimajor_km":6861.1739419603,"source":"CELESTRAK","updated_at":"2026-05-25T13:38:19.125667Z"}}}